Time,TemperatureF,DewpointF,PressureIn,WindDirection,WindDirectionDegrees,WindSpeedMPH,WindSpeedGustMPH,Humidity,HourlyPrecipIn,Conditions,Clouds,dailyrainin,SoftwareType,DateUTC
2013-03-22 00:03:00,17.0,8.0,30.01,North,359,0.0,5.0,68,0.00,,,0.00,,2013-03-22 04:03:00,
2013-03-22 00:12:00,17.0,8.0,30.01,North,359,0.0,5.0,68,0.00,,,0.00,,2013-03-22 04:12:00,
2013-03-22 00:23:00,17.0,9.0,30.01,WNW,303,0.0,4.0,69,0.00,,,0.00,,2013-03-22 04:23:00,
2013-03-22 00:32:00,17.0,8.0,30.01,NW,324,2.0,8.0,67,0.00,,,0.00,,2013-03-22 04:32:00,
2013-03-22 00:43:00,17.0,8.0,30.01,NW,324,2.0,8.0,67,0.00,,,0.00,,2013-03-22 04:43:00,
2013-03-22 00:52:00,17.0,9.0,30.01,WNW,294,0.0,5.0,69,0.00,,,0.00,,2013-03-22 04:52:00,
2013-03-22 01:02:00,16.0,8.0,30.01,WNW,290,0.0,2.0,69,0.00,,,0.00,,2013-03-22 05:02:00,
2013-03-22 01:12:00,16.0,8.0,30.01,WNW,290,0.0,2.0,69,0.00,,,0.00,,2013-03-22 05:12:00,
2013-03-22 01:22:00,16.0,8.0,30.02,West,278,0.0,3.0,69,0.00,,,0.00,,2013-03-22 05:22:00,
2013-03-22 01:32:00,16.0,8.0,30.02,NW,320,0.0,1.0,70,0.00,,,0.00,,2013-03-22 05:32:00,
2013-03-22 01:42:00,16.0,8.0,30.02,NW,320,0.0,1.0,70,0.00,,,0.00,,2013-03-22 05:42:00,
2013-03-22 01:52:00,16.0,9.0,30.02,NW,322,1.0,8.0,73,0.00,,,0.00,,2013-03-22 05:52:00,
2013-03-22 02:02:00,16.0,9.0,30.02,WNW,289,1.0,6.0,72,0.00,,,0.00,,2013-03-22 06:02:00,
2013-03-22 02:13:00,16.0,9.0,30.02,WNW,289,1.0,6.0,72,0.00,,,0.00,,2013-03-22 06:13:00,
2013-03-22 02:22:00,16.0,9.0,30.02,WNW,301,0.0,6.0,72,0.00,,,0.00,,2013-03-22 06:22:00,
2013-03-22 02:32:00,16.0,9.0,30.03,NW,308,0.0,4.0,72,0.00,,,0.00,,2013-03-22 06:32:00,
2013-03-22 02:42:00,16.0,9.0,30.03,NW,308,0.0,4.0,72,0.00,,,0.00,,2013-03-22 06:42:00,
2013-03-22 02:52:00,16.0,9.0,30.03,West,269,0.0,4.0,72,0.00,,,0.00,,2013-03-22 06:52:00,
2013-03-22 03:03:00,16.0,9.0,30.03,North,359,0.0,4.0,73,0.00,,,0.00,,2013-03-22 07:03:00,
2013-03-22 03:12:00,16.0,9.0,30.03,North,359,0.0,4.0,73,0.00,,,0.00,,2013-03-22 07:12:00,
2013-03-22 03:22:00,16.0,9.0,30.03,North,359,0.0,4.0,73,0.00,,,0.00,,2013-03-22 07:22:00,
2013-03-22 03:32:00,15.0,8.0,30.02,NW,312,0.0,3.0,73,0.00,,,0.00,,2013-03-22 07:32:00,
2013-03-22 03:42:00,15.0,8.0,30.02,NW,312,0.0,3.0,73,0.00,,,0.00,,2013-03-22 07:42:00,
2013-03-22 03:52:00,15.0,8.0,30.02,WNW,289,0.0,5.0,74,0.00,,,0.00,,2013-03-22 07:52:00,
2013-03-22 04:03:00,15.0,9.0,30.02,WNW,302,0.0,6.0,75,0.00,,,0.00,,2013-03-22 08:03:00,
2013-03-22 04:13:00,15.0,9.0,30.02,WNW,302,0.0,6.0,75,0.00,,,0.00,,2013-03-22 08:13:00,
2013-03-22 04:22:00,16.0,9.0,30.02,North,359,1.0,8.0,74,0.00,,,0.00,,2013-03-22 08:22:00,
2013-03-22 04:32:00,16.0,9.0,30.02,North,359,1.0,8.0,74,0.00,,,0.00,,2013-03-22 08:32:00,
2013-03-22 04:42:00,16.0,9.0,30.02,North,359,1.0,8.0,74,0.00,,,0.00,,2013-03-22 08:42:00,
2013-03-22 04:52:00,16.0,9.0,30.01,NW,315,1.0,7.0,75,0.00,,,0.00,,2013-03-22 08:52:00,
2013-03-22 05:03:00,16.0,9.0,30.02,NW,307,2.0,7.0,74,0.00,,,0.00,,2013-03-22 09:03:00,
2013-03-22 05:12:00,16.0,9.0,30.02,NW,307,2.0,7.0,74,0.00,,,0.00,,2013-03-22 09:12:00,
2013-03-22 05:22:00,15.0,9.0,30.01,NW,307,0.0,8.0,75,0.00,,,0.00,,2013-03-22 09:22:00,
2013-03-22 05:33:00,15.0,9.0,30.01,WNW,303,0.0,8.0,76,0.00,,,0.00,,2013-03-22 09:33:00,
2013-03-22 05:42:00,15.0,9.0,30.01,WNW,303,0.0,8.0,76,0.00,,,0.00,,2013-03-22 09:42:00,
2013-03-22 05:53:00,15.0,9.0,30.02,NNW,343,0.0,6.0,76,0.00,,,0.00,,2013-03-22 09:53:00,
2013-03-22 06:04:00,16.0,9.0,30.03,North,359,1.0,8.0,75,0.00,,,0.00,,2013-03-22 10:04:00,
2013-03-22 06:12:00,16.0,9.0,30.03,North,359,1.0,8.0,75,0.00,,,0.00,,2013-03-22 10:12:00,
2013-03-22 06:22:00,15.0,9.0,30.03,West,262,0.0,4.0,75,0.00,,,0.00,,2013-03-22 10:22:00,
2013-03-22 06:33:00,15.0,9.0,30.03,WNW,297,0.0,1.0,75,0.00,,,0.00,,2013-03-22 10:33:00,
2013-03-22 06:42:00,15.0,9.0,30.03,WNW,297,0.0,1.0,75,0.00,,,0.00,,2013-03-22 10:42:00,
2013-03-22 06:52:00,15.0,9.0,30.03,North,359,0.0,0.0,76,0.00,,,0.00,,2013-03-22 10:52:00,
2013-03-22 07:03:00,15.0,9.0,30.04,WNW,296,0.0,3.0,77,0.00,,,0.00,,2013-03-22 11:03:00,
2013-03-22 07:12:00,15.0,9.0,30.04,WNW,296,0.0,3.0,77,0.00,,,0.00,,2013-03-22 11:12:00,
2013-03-22 07:22:00,15.0,9.0,30.05,WSW,248,0.0,5.0,77,0.00,,,0.00,,2013-03-22 11:22:00,
2013-03-22 07:33:00,15.0,9.0,30.05,WSW,248,0.0,5.0,77,0.00,,,0.00,,2013-03-22 11:33:00,
2013-03-22 07:42:00,15.0,9.0,30.05,WSW,248,0.0,5.0,77,0.00,,,0.00,,2013-03-22 11:42:00,
2013-03-22 07:52:00,15.0,9.0,30.06,WNW,302,0.0,3.0,77,0.00,,,0.00,,2013-03-22 11:52:00,
2013-03-22 08:02:00,15.0,9.0,30.06,WNW,295,0.0,1.0,77,0.00,,,0.00,,2013-03-22 12:02:00,
2013-03-22 08:12:00,15.0,9.0,30.07,WNW,299,0.0,3.0,77,0.00,,,0.00,,2013-03-22 12:12:00,
2013-03-22 08:22:00,15.0,9.0,30.07,WNW,299,0.0,3.0,77,0.00,,,0.00,,2013-03-22 12:22:00,
2013-03-22 08:32:00,16.0,10.0,30.07,North,359,0.0,4.0,76,0.00,,,0.00,,2013-03-22 12:32:00,
2013-03-22 08:42:00,16.0,10.0,30.07,North,359,0.0,4.0,76,0.00,,,0.00,,2013-03-22 12:42:00,
2013-03-22 08:52:00,17.0,10.0,30.07,North,359,1.0,7.0,75,0.00,,,0.00,,2013-03-22 12:52:00,
2013-03-22 09:02:00,17.0,10.0,30.07,North,359,4.0,10.0,74,0.00,,,0.00,,2013-03-22 13:02:00,
2013-03-22 09:12:00,17.0,10.0,30.07,North,359,4.0,10.0,74,0.00,,,0.00,,2013-03-22 13:12:00,
2013-03-22 09:22:00,17.0,10.0,30.07,North,359,4.0,10.0,74,0.00,,,0.00,,2013-03-22 13:22:00,
2013-03-22 09:32:00,18.0,11.0,30.08,NW,316,2.0,14.0,72,0.00,,,0.00,,2013-03-22 13:32:00,
2013-03-22 09:42:00,18.0,11.0,30.08,NW,316,2.0,14.0,72,0.00,,,0.00,,2013-03-22 13:42:00,
2013-03-22 09:53:00,19.0,11.0,30.08,WNW,303,1.0,8.0,69,0.00,,,0.00,,2013-03-22 13:53:00,
2013-03-22 10:03:00,19.0,11.0,30.08,WNW,297,2.0,9.0,69,0.00,,,0.00,,2013-03-22 14:03:00,
2013-03-22 10:12:00,19.0,11.0,30.08,WNW,297,2.0,9.0,69,0.00,,,0.00,,2013-03-22 14:12:00,
2013-03-22 10:22:00,20.0,11.0,30.08,North,359,2.0,9.0,69,0.00,,,0.00,,2013-03-22 14:22:00,
2013-03-22 10:32:00,21.0,12.0,30.09,WNW,299,1.0,6.0,69,0.00,,,0.00,,2013-03-22 14:32:00,
2013-03-22 10:43:00,21.0,12.0,30.09,WNW,299,1.0,6.0,69,0.00,,,0.00,,2013-03-22 14:43:00,
2013-03-22 10:52:00,21.0,11.0,30.09,North,354,0.0,7.0,66,0.00,,,0.00,,2013-03-22 14:52:00,
2013-03-22 11:03:00,22.0,12.0,30.10,NNW,343,0.0,11.0,66,0.00,,,0.00,,2013-03-22 15:03:00,
2013-03-22 11:12:00,22.0,12.0,30.10,NNW,343,0.0,11.0,66,0.00,,,0.00,,2013-03-22 15:12:00,
2013-03-22 11:22:00,23.0,13.0,30.10,NW,310,0.0,7.0,64,0.00,,,0.00,,2013-03-22 15:22:00,
2013-03-22 11:33:00,25.0,14.0,30.09,North,359,1.0,8.0,62,0.00,,,0.00,,2013-03-22 15:33:00,
2013-03-22 11:43:00,25.0,14.0,30.09,North,359,1.0,8.0,62,0.00,,,0.00,,2013-03-22 15:43:00,
2013-03-22 11:52:00,25.0,13.0,30.09,North,359,3.0,12.0,61,0.00,,,0.00,,2013-03-22 15:52:00,
2013-03-22 12:03:00,26.0,13.0,30.09,NW,305,3.0,10.0,58,0.00,,,0.00,,2013-03-22 16:03:00,
2013-03-22 12:13:00,27.0,14.0,30.09,West,259,0.0,12.0,57,0.00,,,0.00,,2013-03-22 16:13:00,
2013-03-22 12:23:00,27.0,14.0,30.09,West,259,0.0,12.0,57,0.00,,,0.00,,2013-03-22 16:23:00,
2013-03-22 12:32:00,28.0,14.0,30.10,SW,231,3.0,14.0,55,0.00,,,0.00,,2013-03-22 16:32:00,
2013-03-22 12:42:00,29.0,15.0,30.09,NW,315,3.0,11.0,56,0.00,,,0.00,,2013-03-22 16:42:00,
2013-03-22 12:52:00,29.0,15.0,30.09,NW,315,3.0,11.0,56,0.00,,,0.00,,2013-03-22 16:52:00,
2013-03-22 13:03:00,30.0,15.0,30.08,NW,310,1.0,9.0,53,0.00,,,0.00,,2013-03-22 17:03:00,
2013-03-22 13:12:00,30.0,15.0,30.08,West,260,3.0,9.0,53,0.00,,,0.00,,2013-03-22 17:12:00,
2013-03-22 13:23:00,30.0,15.0,30.08,West,260,3.0,9.0,53,0.00,,,0.00,,2013-03-22 17:23:00,
2013-03-22 13:33:00,30.0,14.0,30.08,North,359,2.0,16.0,51,0.00,,,0.00,,2013-03-22 17:33:00,
2013-03-22 13:42:00,30.0,14.0,30.08,North,359,2.0,16.0,51,0.00,,,0.00,,2013-03-22 17:42:00,
2013-03-22 13:52:00,30.0,14.0,30.08,NNW,344,2.0,10.0,51,0.00,,,0.00,,2013-03-22 17:52:00,
2013-03-22 14:02:00,32.0,15.0,30.07,NW,323,1.0,11.0,49,0.00,,,0.00,,2013-03-22 18:02:00,
2013-03-22 14:12:00,32.0,15.0,30.07,NW,323,1.0,11.0,49,0.00,,,0.00,,2013-03-22 18:12:00,
2013-03-22 14:22:00,32.0,15.0,30.07,NW,312,2.0,10.0,49,0.00,,,0.00,,2013-03-22 18:22:00,
2013-03-22 15:52:00,36.0,-99.9,30.02,NW,304,0.0,0.0,-999,0.00,,,0.00,,2013-03-22 19:52:00,
2013-03-22 16:02:00,36.0,15.0,30.03,NW,326,1.0,11.0,42,0.00,,,0.00,,2013-03-22 20:02:00,
2013-03-22 16:13:00,36.0,15.0,30.03,NW,326,1.0,11.0,42,0.00,,,0.00,,2013-03-22 20:13:00,
2013-03-22 16:22:00,36.0,14.0,30.03,WNW,295,2.0,8.0,40,0.00,,,0.00,,2013-03-22 20:22:00,
2013-03-22 16:32:00,36.0,14.0,30.03,WNW,295,2.0,8.0,40,0.00,,,0.00,,2013-03-22 20:32:00,
2013-03-22 16:43:00,36.0,14.0,30.03,WNW,295,2.0,8.0,40,0.00,,,0.00,,2013-03-22 20:43:00,
2013-03-22 16:52:00,37.0,15.0,30.03,North,359,2.0,11.0,40,0.00,,,0.00,,2013-03-22 20:52:00,
2013-03-22 17:03:00,38.0,15.0,30.03,SW,214,2.0,7.0,39,0.00,,,0.00,,2013-03-22 21:03:00,
2013-03-22 17:12:00,38.0,15.0,30.04,NW,311,1.0,10.0,39,0.00,,,0.00,,2013-03-22 21:12:00,
2013-03-22 17:22:00,38.0,15.0,30.04,NW,311,1.0,10.0,39,0.00,,,0.00,,2013-03-22 21:22:00,
2013-03-22 17:33:00,37.0,15.0,30.04,North,359,1.0,10.0,40,0.00,,,0.00,,2013-03-22 21:33:00,
2013-03-22 17:43:00,37.0,15.0,30.04,North,359,1.0,10.0,40,0.00,,,0.00,,2013-03-22 21:43:00,
2013-03-22 17:53:00,37.0,14.0,30.04,West,261,0.0,9.0,38,0.00,,,0.00,,2013-03-22 21:53:00,
2013-03-22 18:03:00,36.0,13.0,30.05,North,354,1.0,8.0,38,0.00,,,0.00,,2013-03-22 22:03:00,
2013-03-22 18:12:00,36.0,13.0,30.05,North,354,1.0,8.0,38,0.00,,,0.00,,2013-03-22 22:12:00,
2013-03-22 18:23:00,36.0,13.0,30.05,NNW,330,2.0,10.0,38,0.00,,,0.00,,2013-03-22 22:23:00,
2013-03-22 18:32:00,36.0,14.0,30.06,WNW,289,3.0,8.0,40,0.00,,,0.00,,2013-03-22 22:32:00,
2013-03-22 18:43:00,36.0,14.0,30.06,WNW,289,3.0,8.0,40,0.00,,,0.00,,2013-03-22 22:43:00,
2013-03-22 18:52:00,36.0,16.0,30.06,NNW,332,0.0,10.0,43,0.00,,,0.00,,2013-03-22 22:52:00,
2013-03-22 19:02:00,36.0,15.0,30.06,WSW,254,0.0,9.0,41,0.00,,,0.00,,2013-03-22 23:02:00,
2013-03-22 19:12:00,36.0,15.0,30.06,WSW,254,0.0,9.0,41,0.00,,,0.00,,2013-03-22 23:12:00,
2013-03-22 19:22:00,36.0,15.0,30.06,SW,233,0.0,5.0,42,0.00,,,0.00,,2013-03-22 23:22:00,
2013-03-22 19:32:00,35.0,14.0,30.07,North,10,0.0,7.0,41,0.00,,,0.00,,2013-03-22 23:32:00,
2013-03-22 19:42:00,35.0,14.0,30.07,North,10,0.0,7.0,41,0.00,,,0.00,,2013-03-22 23:42:00,
2013-03-22 19:52:00,34.0,15.0,30.07,West,263,0.0,6.0,45,0.00,,,0.00,,2013-03-22 23:52:00,
2013-03-22 20:02:00,34.0,14.0,30.07,WNW,295,2.0,6.0,44,0.00,,,0.00,,2013-03-23 00:02:00,
2013-03-22 20:12:00,34.0,14.0,30.07,WNW,295,2.0,6.0,44,0.00,,,0.00,,2013-03-23 00:12:00,
2013-03-22 20:23:00,33.0,16.0,30.08,NNW,332,0.0,4.0,49,0.00,,,0.00,,2013-03-23 00:23:00,
2013-03-22 20:33:00,32.0,15.0,30.08,NW,315,0.0,5.0,50,0.00,,,0.00,,2013-03-23 00:33:00,
2013-03-22 20:42:00,32.0,15.0,30.08,NW,315,0.0,5.0,50,0.00,,,0.00,,2013-03-23 00:42:00,
2013-03-22 20:52:00,32.0,15.0,30.08,NW,315,0.0,5.0,50,0.00,,,0.00,,2013-03-23 00:52:00,
2013-03-22 21:03:00,31.0,16.0,30.09,NNW,339,0.0,5.0,54,0.00,,,0.00,,2013-03-23 01:03:00,
2013-03-22 21:12:00,31.0,16.0,30.09,NNW,339,0.0,5.0,54,0.00,,,0.00,,2013-03-23 01:12:00,
2013-03-22 21:22:00,31.0,14.0,30.09,WNW,297,0.0,4.0,49,0.00,,,0.00,,2013-03-23 01:22:00,
2013-03-22 21:32:00,31.0,15.0,30.09,WNW,303,0.0,4.0,50,0.00,,,0.00,,2013-03-23 01:32:00,
2013-03-22 21:42:00,31.0,15.0,30.09,WNW,303,0.0,4.0,50,0.00,,,0.00,,2013-03-23 01:42:00,
2013-03-22 21:52:00,30.0,14.0,30.10,WNW,301,0.0,1.0,51,0.00,,,0.00,,2013-03-23 01:52:00,
2013-03-22 22:02:00,30.0,15.0,30.11,NW,315,0.0,0.0,52,0.00,,,0.00,,2013-03-23 02:02:00,
2013-03-22 22:12:00,30.0,15.0,30.11,NW,315,0.0,0.0,52,0.00,,,0.00,,2013-03-23 02:12:00,
2013-03-22 22:22:00,30.0,15.0,30.11,NW,310,0.0,3.0,53,0.00,,,0.00,,2013-03-23 02:22:00,
2013-03-22 22:32:00,30.0,15.0,30.12,WNW,295,0.0,5.0,54,0.00,,,0.00,,2013-03-23 02:32:00,
2013-03-22 22:42:00,30.0,15.0,30.12,WNW,295,0.0,5.0,54,0.00,,,0.00,,2013-03-23 02:42:00,
2013-03-22 22:52:00,29.0,14.0,30.12,NW,311,0.0,1.0,54,0.00,,,0.00,,2013-03-23 02:52:00,
2013-03-22 23:02:00,29.0,14.0,30.12,NW,311,0.0,1.0,54,0.00,,,0.00,,2013-03-23 03:02:00,
2013-03-22 23:12:00,29.0,14.0,30.12,NW,311,0.0,1.0,54,0.00,,,0.00,,2013-03-23 03:12:00,
2013-03-22 23:22:00,28.0,15.0,30.12,North,359,0.0,3.0,57,0.00,,,0.00,,2013-03-23 03:22:00,
2013-03-22 23:33:00,28.0,15.0,30.12,NW,319,0.0,2.0,57,0.00,,,0.00,,2013-03-23 03:33:00,
2013-03-22 23:43:00,28.0,15.0,30.12,NW,319,0.0,2.0,57,0.00,,,0.00,,2013-03-23 03:43:00,
2013-03-22 23:53:00,28.0,15.0,30.12,WNW,284,0.0,3.0,57,0.00,,,0.00,,2013-03-23 03:53:00,